COSMOS 2251 DEB, 35018

Orbit data source: Space-Track

COSMOS 2251 DEB, 35018 is space debris in LEO originally from a launch on Wed, 16 Jun 1993 UTC launched from the Plesetsk Missile And Space Complex (PKMTR). The debris from Iridium 33, an American commercial communications satellite, has been tracked extensively since its accidental collision with the defunct Russian satellite Cosmos 2251 in 2009. This event, occurring at high speed in low Earth orbit (LEO), generated thousands of pieces of space debris, significantly increasing the risk of further collisions. The Iridium 33 debris cloud has impacted space traffic management and orbital debris mitigation strategies, making it a subject of ongoing study in space situational awareness.

Loading next visibility...
Identifier
35018, 1993-036AGF
Orbit
LEO
Country
Flag of CISCIS
Related business
Manufacturer
Unknown
Mission
Spacecraft
Bus & Motor
Unknown
Mass
Unknown
Launch date (UTC)
1993-06-16 (33 years ago)
Launch vehicle
Unknown
Launch site
Plesetsk Missile And Space Complex (PKMTR)
Object type
Payload
Rocket body
Debris
Shape & HBR
Unknown shape, 0.1 m
Radar Cross Section
Small (<0.1 m²)

Expand to show TLE details & history
Last TLE update: 1 day ago

TLE from 1 day ago
0 COSMOS 2251 DEB
1 35018U 93036AGF 26205.96950327  .00000965  00000-0  77551-3 0  9992
2 35018  73.9778 100.5054 0343702 324.4070  33.4547 13.67747932862511
Epoch: 2026-07-24T23:16Z
TLE epoch observation values (Epoch: 2026-07-24T23:16:05.082Z)
Latitude
-0.00003°
Longitude
168.79571°
Altitude
801.143 km
Speed
7.558 km/s
True Right ascension
06h 42m 01s
True Declination
0° 00' 00"
Sunlit
Object was in daylight at epoch
Visualization orbit readout
Latitude
Unknown
Longitude
Unknown
Altitude
Unknown
Speed
Unknown
Apparent Right ascension
Unknown
Apparent Declination
Unknown
Sunlit
N/A
Visualization observer readout
Local Sidereal Time
23:11:18
Azimuth
Unknown
Elevation
Unknown
Doppler factor
Unknown
Orbital elements
Apogee altitude
1,259.141 km
Perigee altitude
751.596 km
Semi-major axis
7,383.505 km
Eccentricity
0.03437
Inclination
73.9778°
RAAN
100.5054°
Arg. of periapsis
324.407°
True anomaly
35.70594°
Mean anomaly
33.4547°
Eccentric anomaly
34.57215°
Mean motion
3.42097 °/min
Orbital period
105.23 mins
BSTAR
0.00077551
Loading maneuver chart data...
Computing Atmospheric mass density...

Documentation

Showing up to 5 results
|